Satellite: NCUBE2
Catalog number: 28897
Epoch time:      07073.66927008
Element set:    0204
Inclination:      098.1418 deg
RA of node:       332.2833 deg
Eccentricity:    0.0018335
Arg of perigee:   050.0646 deg
Mean anomaly:     310.2158 deg
Mean motion:   14.59684808 rev/day
Decay rate:       1.58e-06 rev/day^2
Epoch rev:           06558
Checksum:              313

Satellite: NMARS
Catalog number: 29662
Epoch time:      07074.62074426
Element set:     124
Inclination:      051.6364 deg
RA of node:       221.0063 deg
Eccentricity:    0.0011493
Arg of perigee:   331.2448 deg
Mean anomaly:     028.7028 deg
Mean motion:   15.94653083 rev/day
Decay rate:    1.15666e-03 rev/day^2
Epoch rev:            1333
Checksum:              275

Satellite: FCAL
Catalog number: 29667
Epoch time:      07073.90512721
Element set:    0098
Inclination:      051.6336 deg
RA of node:       227.4883 deg
Eccentricity:    0.0015508
Arg of perigee:   337.6144 deg
Mean anomaly:     022.4183 deg
Mean motion:   15.84685453 rev/day
Decay rate:     1.9047e-04 rev/day^2
Epoch rev:           01303
Checksum:              300

Satellite: FALCON
Catalog number: 30776
Epoch time:      07073.97344187
Element set:    0011
Inclination:      035.4336 deg
RA of node:       063.7700 deg
Eccentricity:    0.0001576
Arg of perigee:   338.0061 deg
Mean anomaly:     022.0599 deg
Mean motion:   15.02652725 rev/day
Decay rate:       2.69e-06 rev/day^2
Epoch rev:           00087
Checksum:              275

/EX





More information about the Keps mailing list